When you browse on this site, cookies collect data to enhance your experience and personalize the content and advertising you see.
Visit our Privacy Policy to learn more. By continuing to use the site, you agree to this use of cookies and data.
  • Em Portugal
  • Lista de países
  • Para 7 dias
  • Temperatura da água
  • Mapa do tempo
  • Widgets de tempo
  • user-avatar
    Iniciar Sessão

    Previsão horária em Al-Budajji

    Hoje, 27 Maio, Quarta-feira

    Tempo Temperatura Precipitação Vento Pressão Humidade
    00:00 +32°C° 0 mm 4 m/s 758 mmHg 77%
    01:00 +32°C° 0 mm 4 m/s 758 mmHg 76%
    02:00 +32°C° 0 mm 4 m/s 758 mmHg 75%
    03:00 +32°C° 0 mm 4 m/s 757 mmHg 75%
    04:00 +31°C° 0 mm 3 m/s 757 mmHg 73%
    05:00 +31°C° 0 mm 3 m/s 757 mmHg 73%
    06:00 +31°C° 0 mm 2 m/s 758 mmHg 73%
    07:00 +31°C° 0 mm 2 m/s 758 mmHg 73%
    08:00 +31°C° 0 mm 2 m/s 759 mmHg 72%
    09:00 +31°C° 0 mm 3 m/s 759 mmHg 72%
    10:00 +31°C° 0 mm 3 m/s 759 mmHg 72%
    11:00 +33°C° 0 mm 3 m/s 759 mmHg 71%
    12:00 +33°C° 0 mm 3 m/s 758 mmHg 69%
    13:00 +33°C° 0 mm 3 m/s 758 mmHg 68%
    14:00 +32°C° 0 mm 2 m/s 758 mmHg 67%
    15:00 +32°C° 0 mm 1 m/s 757 mmHg 65%
    16:00 +32°C° 0 mm 1 m/s 757 mmHg 63%
    17:00 +30°C° 0 mm 0 m/s 757 mmHg 67%
    18:00 +30°C° 0 mm 0 m/s 757 mmHg 71%
    19:00 +30°C° 0 mm 0 m/s 757 mmHg 75%
    20:00 +32°C° 0 mm 1 m/s 757 mmHg 74%
    21:00 +32°C° 0 mm 2 m/s 757 mmHg 73%
    22:00 +33°C° 0 mm 3 m/s 757 mmHg 72%
    23:00 +32°C° 0 mm 2 m/s 757 mmHg 72%

    Amanhã, 28 Maio, Quinta-feira

    Tempo Temperatura Precipitação Vento Pressão Humidade
    00:00 +32°C° 0 mm 2 m/s 756 mmHg 73%
    01:00 +32°C° 0 mm 1 m/s 756 mmHg 73%
    02:00 +32°C° 0 mm 2 m/s 756 mmHg 71%
    03:00 +32°C° 0 mm 2 m/s 755 mmHg 68%
    04:00 +32°C° 0 mm 2 m/s 755 mmHg 66%
    05:00 +32°C° 0 mm 2 m/s 756 mmHg 67%
    06:00 +32°C° 0 mm 2 m/s 756 mmHg 68%
    07:00 +32°C° 0 mm 2 m/s 757 mmHg 70%
    08:00 +32°C° 0 mm 2 m/s 757 mmHg 69%
    09:00 +32°C° 0 mm 2 m/s 757 mmHg 68%
    10:00 +33°C° 0 mm 3 m/s 757 mmHg 67%
    11:00 +32°C° 0 mm 2 m/s 757 mmHg 68%
    12:00 +33°C° 0 mm 1 m/s 757 mmHg 68%
    13:00 +33°C° 0 mm 1 m/s 756 mmHg 68%
    14:00 +33°C° 0 mm 1 m/s 756 mmHg 66%
    15:00 +33°C° 0 mm 1 m/s 756 mmHg 64%
    16:00 +32°C° 0 mm 0 m/s 755 mmHg 63%
    17:00 +34°C° 0 mm 1 m/s 755 mmHg 64%
    18:00 +33°C° 0 mm 1 m/s 755 mmHg 64%
    19:00 +33°C° 0 mm 1 m/s 755 mmHg 65%
    20:00 +34°C° 0 mm 2 m/s 755 mmHg 63%
    21:00 +34°C° 0 mm 3 m/s 755 mmHg 61%
    22:00 +34°C° 0 mm 4 m/s 756 mmHg 58%
    23:00 +34°C° 0 mm 4 m/s 755 mmHg 59%

    Depois de amanhã, 29 Maio, Sexta-feira

    Tempo Temperatura Precipitação Vento Pressão Humidade
    00:00 +34°C° 0 mm 4 m/s 755 mmHg 60%
    01:00 +34°C° 0 mm 4 m/s 755 mmHg 61%
    02:00 +34°C° 0 mm 4 m/s 754 mmHg 60%
    03:00 +35°C° 0 mm 3 m/s 754 mmHg 58%
    04:00 +35°C° 0 mm 2 m/s 754 mmHg 56%
    05:00 +35°C° 0 mm 3 m/s 754 mmHg 56%
    06:00 +35°C° 0 mm 3 m/s 754 mmHg 56%
    07:00 +35°C° 0 mm 3 m/s 755 mmHg 56%
    08:00 +35°C° 0 mm 2 m/s 755 mmHg 61%
    09:00 +33°C° 0 mm 1 m/s 755 mmHg 67%
    10:00 +31°C° 0 mm 0 m/s 756 mmHg 72%
    11:00 +34°C° 0 mm 1 m/s 756 mmHg 68%
    12:00 +35°C° 0 mm 2 m/s 755 mmHg 64%
    13:00 +35°C° 0 mm 2 m/s 755 mmHg 61%
    14:00 +35°C° 0 mm 2 m/s 755 mmHg 61%
    15:00 +35°C° 0 mm 1 m/s 754 mmHg 62%
    16:00 +35°C° 0 mm 1 m/s 754 mmHg 62%
    17:00 +35°C° 0 mm 1 m/s 754 mmHg 61%
    18:00 +35°C° 0 mm 2 m/s 754 mmHg 61%
    19:00 +35°C° 0 mm 2 m/s 754 mmHg 60%
    20:00 +35°C° 0 mm 2 m/s 754 mmHg 60%
    21:00 +35°C° 0 mm 2 m/s 754 mmHg 61%
    22:00 +34°C° 0 mm 2 m/s 755 mmHg 61%
    23:00 +34°C° 0 mm 2 m/s 754 mmHg 60%

    30 Maio, Sábado

    Tempo Temperatura Precipitação Vento Pressão Humidade
    00:00 +34°C° 0 mm 2 m/s 754 mmHg 60%
    01:00 +34°C° 0 mm 2 m/s 754 mmHg 59%
    02:00 +34°C° 0 mm 2 m/s 753 mmHg 57%
    03:00 +35°C° 0 mm 2 m/s 753 mmHg 56%
    04:00 +35°C° 0 mm 3 m/s 753 mmHg 54%
    05:00 +35°C° 0 mm 3 m/s 753 mmHg 54%
    06:00 +35°C° 0 mm 3 m/s 754 mmHg 54%
    07:00 +35°C° 0 mm 4 m/s 754 mmHg 54%
    08:00 +35°C° 0 mm 3 m/s 755 mmHg 57%
    09:00 +35°C° 0 mm 3 m/s 755 mmHg 59%
    10:00 +34°C° 0 mm 3 m/s 756 mmHg 62%
    11:00 +35°C° 0 mm 2 m/s 755 mmHg 61%
    12:00 +35°C° 0 mm 2 m/s 755 mmHg 60%
    13:00 +35°C° 0 mm 2 m/s 755 mmHg 59%
    14:00 +36°C° 0 mm 2 m/s 755 mmHg 59%
    15:00 +36°C° 0 mm 2 m/s 755 mmHg 59%
    16:00 +36°C° 0 mm 2 m/s 754 mmHg 59%
    17:00 +35°C° 0 mm 2 m/s 754 mmHg 60%
    18:00 +35°C° 0 mm 3 m/s 754 mmHg 62%
    19:00 +35°C° 0 mm 3 m/s 754 mmHg 63%
    20:00 +34°C° 0 mm 3 m/s 755 mmHg 66%
    21:00 +34°C° 0 mm 3 m/s 755 mmHg 69%
    22:00 +34°C° 0 mm 3 m/s 756 mmHg 73%
    23:00 +34°C° 0 mm 4 m/s 755 mmHg 71%

    31 Maio, Domingo

    Tempo Temperatura Precipitação Vento Pressão Humidade
    00:00 +34°C° 0 mm 4 m/s 755 mmHg 70%
    01:00 +34°C° 0 mm 5 m/s 754 mmHg 68%
    02:00 +34°C° 0 mm 5 m/s 754 mmHg 69%
    03:00 +34°C° 0 mm 6 m/s 754 mmHg 69%
    04:00 +34°C° 0 mm 6 m/s 754 mmHg 70%
    05:00 +34°C° 0 mm 5 m/s 754 mmHg 72%
    06:00 +33°C° 0 mm 4 m/s 755 mmHg 74%
    07:00 +32°C° 0 mm 2 m/s 755 mmHg 76%
    08:00 +33°C° 0 mm 3 m/s 755 mmHg 75%
    09:00 +33°C° 0 mm 3 m/s 756 mmHg 75%
    10:00 +34°C° 0 mm 4 m/s 756 mmHg 74%
    11:00 +34°C° 0 mm 4 m/s 756 mmHg 74%
    12:00 +33°C° 0 mm 5 m/s 756 mmHg 75%
    13:00 +33°C° 0 mm 5 m/s 756 mmHg 75%
    14:00 +34°C° 0 mm 4 m/s 755 mmHg 75%
    15:00 +34°C° 0 mm 4 m/s 755 mmHg 75%
    16:00 +34°C° 0 mm 3 m/s 755 mmHg 75%
    17:00 +34°C° 0 mm 3 m/s 755 mmHg 75%
    18:00 +33°C° 0 mm 4 m/s 755 mmHg 76%
    19:00 +33°C° 0 mm 4 m/s 754 mmHg 77%
    20:00 +33°C° 0 mm 5 m/s 755 mmHg 77%
    21:00 +33°C° 0 mm 5 m/s 755 mmHg 77%
    22:00 +33°C° 0 mm 5 m/s 755 mmHg 77%
    23:00 +33°C° 0 mm 4 m/s 755 mmHg 77%

    1 Junho, Segunda-feira

    Tempo Temperatura Precipitação Vento Pressão Humidade
    00:00 +33°C° 0 mm 4 m/s 755 mmHg 76%
    01:00 +33°C° 0 mm 4 m/s 755 mmHg 76%
    02:00 +33°C° 0 mm 3 m/s 754 mmHg 76%
    03:00 +32°C° 0 mm 2 m/s 754 mmHg 76%
    04:00 +32°C° 0 mm 2 m/s 754 mmHg 75%
    05:00 +32°C° 0 mm 2 m/s 754 mmHg 75%
    06:00 +32°C° 0 mm 2 m/s 755 mmHg 74%
    07:00 +32°C° 0 mm 2 m/s 755 mmHg 73%
    08:00 +32°C° 0 mm 2 m/s 755 mmHg 72%
    09:00 +33°C° 0 mm 1 m/s 756 mmHg 71%
    10:00 +33°C° 0 mm 1 m/s 756 mmHg 69%
    11:00 +33°C° 0 mm 1 m/s 756 mmHg 68%
    12:00 +34°C° 0 mm 2 m/s 756 mmHg 67%
    13:00 +34°C° 0 mm 2 m/s 756 mmHg 65%
    14:00 +34°C° 0 mm 2 m/s 755 mmHg 67%
    15:00 +34°C° 0 mm 2 m/s 755 mmHg 68%
    16:00 +34°C° 0 mm 2 m/s 754 mmHg 70%
    17:00 +34°C° 0 mm 2 m/s 754 mmHg 72%
    18:00 +34°C° 0 mm 2 m/s 754 mmHg 74%
    19:00 +34°C° 0 mm 2 m/s 754 mmHg 76%
    20:00 +34°C° 0 mm 2 m/s 754 mmHg 76%
    21:00 +32°C° 0 mm 2 m/s 754 mmHg 75%
    22:00 +32°C° 0 mm 2 m/s 755 mmHg 75%
    23:00 +32°C° 0 mm 1 m/s 754 mmHg 76%
    Mostrar mais